Regional Weather Roundup
Issued by NWS Cleveland, OH

Home | Current Version | Previous Version | Graphics & Text | Print | Product List | Glossary On
Versions: 1 2 3 4 5 6 7 8 9 10 11 12 13 14 15 16 17 18 19 20 21 22 23 24 25 26 27 28 29 30 31 32 33 34 35 36 37 38 39 40 41 42 43 44 45 46 47 48 49 50
000
ASUS41 KCLE 200410
RWRCLE
OHIO REGIONAL WEATHER ROUNDUP
NATIONAL WEATHER SERVICE WILMINGTON, OH
1100 PM EST THU JAN 19 2017

NOTE: "FAIR" INDICATES FEW OR NO CLOUDS BELOW 12,000 FEET WITH NO
SIGNIFICANT WEATHER AND/OR OBSTRUCTIONS TO VISIBILITY.

OHZ001>008-015>018-024>027-034-035-043-044-200500-
   NORTHWEST OHIO

CITY           SKY/WX    TMP DP  RH WIND       PRES   REMARKS
DEFIANCE       FAIR      36  34  92 NE7       29.84F
FINDLAY        FAIR      39  34  82 E8        29.83F
TOLEDO EXPRESS FAIR      36  36 100 E9        29.87F
TOLEDO EXEC    FAIR      35  35 100 NE8       29.88F WCI  29
LIMA           CLOUDY    40  38  93 SE13      29.81F
$$

OHZ009>014-019>023-028>033-038-089-200500-
   NORTHEAST OHIO

CITY           SKY/WX    TMP DP  RH WIND       PRES   REMARKS
CLE-HOPKINS    CLOUDY    37  32  82 SE6       29.93F
CLE-LAKEFRONT  FAIR      38  33  82 SE5       29.91F
CUY CO. ARPT   PTCLDY    37  34  87 SE6       29.91F
LORAIN-ELYRIA  CLOUDY    36  32  85 S12       29.91F
ASHTABULA      FAIR      32  31  96 SE5       29.94F WCI  27
AKRON-CANTON   CLOUDY    36  32  85 SE9       29.91F FOG
WOOSTER        CLOUDY    36  34  92 SE9       29.90F
MANSFIELD      MOCLDY    35  35 100 E10       29.85F WCI  27
YOUNGSTOWN     FAIR      31  30  96 E3        29.91F
$$

OHZ042-051>053-060>062-070>072-077>081-200500-
  SOUTHWEST OHIO

CITY           SKY/WX    TMP DP  RH WIND       PRES   REMARKS
CINC-COVINGTON LGT RAIN  47  43  86 E9        29.75F FOG
CINC-LUNKEN    LGT RAIN  47  45  93 NE5       29.79F
HAMILTON       LGT RAIN  46  44  93 E7        29.79F
DAYTON         LGT RAIN  42  38  85 E12       29.80F
WRIGHT-PAT AFB CLOUDY    43  40  89 E10       29.80F
DAYTON GENERAL LGT RAIN  44  40  85 E10       29.77F
WILMINGTON     CLOUDY    43  40  89 E9        29.80F
$$

OHZ036-037-039>041-045>050-054>059-063>069-073>076-082>088-200500-
  CENTRAL AND SOUTHEAST OHIO

CITY           SKY/WX    TMP DP  RH WIND       PRES   REMARKS
COLUMBUS       CLOUDY    41  36  82 E8        29.85F
OSU AIRPORT    FAIR      39  37  92 E7        29.84F
BOLTON FIELD   FAIR      39  38  93 E10       29.85F
RICKENBACK AFB   N/A     38  37  96 E7        29.85F
NEWARK         FAIR      39  35  86 CALM      29.86F
MARION         FAIR      37  35  92 SE9       29.84F
LANCASTER      FAIR      40  37  89 SE6       29.87F
ZANESVILLE     FAIR      38  35  89 E6        29.88F
NEW PHILLY     CLOUDY    38  36  92 SE6       29.92F
$$



USA.gov is the U.S. government's official web portal to all federal, state and local government web resources and services.